INTELSAT 34 (IS-34) (40874 NORAD) Tracking and Keplerian Element Data

This shows tracking and keplerian element data for the satellite.

Feedback or suggestion? Click here.




ElementValue
Catalog40874
NameINTELSAT 34 (IS-34)
Epoch Orbit1218
Epoch Day348.92210946
Epoch Year2018
RAAN95.7868
Inclination0.0495
Eccentricity0.0001293
Argument of Perigee265.3323
Mean Anonmoly358.8951
Mean Motion1.00270783
Decay Rate-2.74E-06
L11 40874U 15039A 18348.92210946 -.00000274 00000-0 00000-0 0 9992
L22 40874 0.0495 95.7868 0001293 265.3323 358.8951 1.00270783 12184

Live tracking and technical data element details for INTELSAT 34 (IS-34) (NORAD 40874). INTELSAT 34 (IS-34) can be tracked NOW for your location showing map with azimuth and elevation plus other details from your city location.

Track the satellite on the map from your city or location and see movement details for azimuth, elevation, latitude, longitude, range, height, and movement on the map or in text.







IsCatalogInMostPopularTable: catalog: 40874, numindb: 124
Update: records affected: 1



GetName: 40874 INTELSAT 34 (IS-34)

Hit Count: updated at: Sun, 16 Dec 2018 11:47:17 GMT